Theta_e
322 320 318 318 318 317 317 317 317 319 319 319 318 318 318 321 322 323 324 324 323 324 324 325 324 324 313 301 298 306 319 314 303 303 299 298 296 293 291 291 293 292 292 295 295 295 294
322 322 320 319 318 317 317 317 317 317 318 319 319 319 319 320 321 323 324 323 323 323 323 325 324 322 306 296 306 304 302 302 301 301 298 298 295 296 294 293 292 291 293 294 294 294 293
325 324 321 320 319 319 317 317 317 317 317 318 318 318 319 320 321 322 322 323 322 322 323 324 324 312 301 300 304 303 304 300 299 299 298 297 297 295 294 290 294 292 290 291 290 292 292
325 325 324 322 321 319 318 317 317 317 316 316 317 317 318 319 320 320 321 322 321 321 323 323 323 307 298 305 305 303 301 300 300 300 299 299 298 297 293 293 292 289 288 286 289 291 290
324 324 323 322 320 320 318 319 317 317 316 315 315 316 318 319 319 319 320 320 319 321 324 323 308 303 297 310 302 303 298 298 299 299 298 301 298 292 292 289 287 287 284 284 288 291 289
324 323 323 321 319 319 318 317 317 316 315 315 315 315 318 319 319 319 320 320 318 317 316 312 305 298 298 298 302 303 298 299 297 297 298 296 292 290 288 288 284 284 283 284 283 287 287
324 323 322 321 319 318 317 317 316 317 315 314 314 315 317 319 319 320 314 301 299 295 298 296 294 295 297 302 303 300 298 298 297 294 291 292 289 288 288 289 289 286 283 283 285 287 286
323 322 322 321 320 318 316 316 315 315 315 315 314 314 315 317 319 318 303 298 297 297 293 296 296 296 300 300 296 298 298 294 292 289 290 289 288 290 291 289 287 284 283 283 285 286 286
323 322 321 321 320 319 318 317 317 316 315 314 313 313 315 317 317 305 298 297 303 299 291 293 296 297 297 301 295 295 296 292 290 288 288 288 290 291 290 286 285 283 282 282 283 284 283
323 322 321 320 320 319 318 317 317 316 315 315 314 313 315 315 305 299 297 300 302 299 283 287 292 296 298 297 293 295 294 292 288 288 289 289 290 289 285 286 286 282 285 283 282 280 277
323 322 321 320 319 318 318 317 317 316 316 315 314 313 317 313 303 297 300 301 299 292 274 288 292 298 295 293 292 292 293 291 288 289 289 289 286 285 285 286 286 285 284 282 281 279 276
323 322 321 320 319 318 318 318 317 317 316 316 314 314 314 307 300 298 300 297 294 284 276 285 293 292 291 291 290 292 290 291 289 288 287 288 287 287 287 285 285 286 282 280 277 276 272
323 322 321 321 320 319 318 318 318 318 317 316 315 314 311 306 300 298 299 295 284 277 286 285 289 290 288 288 289 290 288 286 287 284 284 286 285 284 287 284 285 283 282 277 274 271 276
323 322 321 321 320 320 319 318 318 318 317 316 315 313 310 308 301 299 295 290 279 283 283 288 289 288 288 289 287 288 286 285 287 286 282 283 283 285 286 286 284 281 282 278 270 270 277
323 322 321 321 320 320 319 318 317 317 316 316 314 309 307 308 301 300 290 282 283 286 287 288 288 285 285 287 288 286 285 284 288 289 288 283 283 284 285 284 284 281 279 282 276 264 269
322 322 321 320 320 319 319 318 317 316 316 315 310 307 306 307 304 299 284 287 286 291 289 290 285 287 283 285 285 285 285 286 289 290 290 288 284 282 281 282 280 281 283 277 277 271 265
318 321 321 320 319 319 319 318 317 316 315 314 308 301 302 305 305 296 288 285 287 293 293 289 286 284 286 285 286 283 285 287 290 288 290 288 287 282 281 280 280 277 278 277 279 276 272
314 315 316 319 319 318 318 318 318 316 315 312 306 295 302 306 295 295 290 288 292 290 293 292 290 288 286 288 286 284 285 290 291 289 286 287 285 282 283 278 278 280 281 281 278 275 273
312 313 314 315 316 318 318 318 318 317 315 310 301 299 303 303 289 290 288 288 291 289 290 291 290 290 290 288 285 286 287 290 290 290 287 287 283 281 281 279 279 277 280 281 280 277 275
308 310 311 312 313 314 316 317 317 317 316 312 300 291 295 296 296 290 289 288 288 291 292 291 289 290 287 286 290 287 285 289 289 291 295 293 285 282 281 282 281 277 279 280 282 278 280
306 307 308 309 311 312 312 315 317 317 316 312 300 294 295 287 291 293 291 289 287 287 291 291 289 289 288 287 287 287 288 286 286 290 287 289 285 286 286 288 280 280 281 281 278 281 279
303 304 305 306 307 308 310 310 312 314 316 308 300 295 295 293 294 292 292 290 288 288 290 288 288 289 291 288 289 287 289 287 289 283 283 283 283 285 284 286 282 281 285 285 280 281 281
299 300 302 303 304 305 305 306 307 308 313 307 308 303 298 293 291 289 289 289 290 293 293 293 292 291 289 290 294 295 292 291 292 288 281 280 281 275 280 281 279 277 282 286 287 287 284
298 298 299 301 301 302 303 302 304 305 305 305 307 304 296 289 291 289 292 292 291 291 291 293 294 291 294 295 292 291 287 286 286 289 287 280 280 282 280 274 273 285 289 285 285 287 288
298 298 298 298 299 299 299 300 301 302 302 300 301 302 300 293 294 293 292 291 293 293 292 292 294 296 297 292 288 285 285 286 287 289 289 288 283 280 278 278 282 284 283 281 280 284 289
297 297 298 298 297 297 297 298 298 299 300 299 297 300 296 291 293 296 292 293 290 290 291 292 296 294 293 290 285 281 280 280 277 277 282 288 287 284 281 276 274 283 286 281 282 280 291
297 296 297 297 296 296 295 296 297 297 298 297 294 298 290 288 291 296 293 292 296 294 291 289 290 287 290 288 284 282 282 285 281 277 277 279 281 279 281 279 282 288 277 281 277 283 287
296 296 296 296 296 295 294 295 295 295 296 294 293 296 290 285 287 290 291 291 293 295 290 289 288 287 286 285 285 285 283 285 284 286 285 282 279 279 279 278 277 287 279 282 289 293 289
296 296 295 295 296 296 296 295 295 295 295 294 286 294 296 286 285 291 291 291 291 295 293 290 291 287 291 286 287 288 285 285 285 281 289 283 286 285 285 283 288 287 292 293 293 293 290
Wind_Speed
5 3 3 4 8 9 11 12 14 15 15 14 15 18 21 21 22 23 23 20 15 12 13 10 6 7 1 2 7 1 3 6 3 2 5 4 5 1 1 1 3 2 1 3 3 5 5
9 8 8 8 8 9 11 12 13 15 15 15 15 15 17 19 20 23 24 23 18 13 15 10 4 5 2 4 3 3 2 2 5 4 3 6 4 2 4 0 1 0 3 5 6 6 4
10 9 10 9 9 6 10 11 14 15 16 16 16 16 17 18 20 22 24 24 21 15 14 7 1 2 2 11 2 3 5 2 2 2 4 2 3 4 2 1 2 1 5 6 3 3 4
11 10 11 10 8 10 8 11 12 14 16 17 16 16 17 19 20 22 24 26 22 17 9 2 2 1 7 1 1 2 2 4 4 5 6 3 2 6 3 0 6 4 4 5 1 3 2
11 11 12 11 13 11 12 9 13 13 15 16 17 16 17 18 19 22 25 28 21 8 1 4 2 3 9 2 0 2 2 4 4 3 4 3 5 4 4 4 5 7 4 3 9 6 3
12 13 13 14 16 14 15 15 14 14 14 15 16 17 15 17 19 20 26 25 11 2 0 1 1 4 2 3 1 2 2 4 3 3 3 6 6 4 4 4 4 5 4 5 8 2 3
14 13 13 13 16 16 17 14 13 11 13 13 14 15 16 15 18 19 13 7 7 5 4 6 4 4 0 1 1 2 2 4 3 2 5 3 3 7 8 7 4 4 4 8 6 5 4
15 15 14 15 14 14 16 15 14 14 13 12 13 14 16 18 17 20 1 4 2 2 10 4 4 5 3 1 2 3 3 5 4 7 4 3 9 6 4 4 5 4 3 9 9 1 6
17 17 16 15 15 14 13 12 12 12 13 13 13 14 13 13 17 4 3 2 3 1 1 10 4 4 3 6 6 4 8 5 5 6 7 8 4 6 6 5 5 4 6 6 8 6 5
18 18 18 17 17 16 14 12 11 10 10 10 12 13 12 15 2 3 1 4 2 2 4 10 4 3 3 3 4 1 4 3 2 10 8 7 2 7 4 6 8 5 6 3 4 5 5
19 19 18 18 18 18 16 15 11 12 11 9 7 11 6 5 3 1 0 3 3 3 5 7 4 2 2 4 3 1 1 2 6 6 7 9 8 6 6 8 8 8 3 3 1 3 4
20 20 19 19 18 18 17 17 13 13 12 10 8 7 1 1 1 2 1 1 2 6 10 6 4 5 4 3 2 2 2 4 1 4 3 7 1 6 7 3 3 5 3 5 4 1 3
22 21 20 20 19 19 18 18 17 14 14 11 10 7 5 3 3 2 1 3 3 7 3 6 7 4 3 7 5 7 7 7 9 4 7 1 5 2 3 4 2 3 6 4 6 3 11
22 22 22 21 21 20 19 19 17 15 15 13 11 9 5 2 3 4 2 5 10 8 9 3 2 2 6 7 5 5 5 6 8 2 4 6 10 10 6 7 8 7 9 8 9 5 10
23 23 22 22 22 22 21 20 18 16 14 12 11 3 3 4 6 3 3 7 11 10 9 9 3 3 5 4 4 6 9 6 9 14 12 8 9 2 1 2 4 6 7 3 5 3 3
22 22 21 23 23 23 23 21 19 18 17 18 4 3 6 11 9 3 3 21 9 9 8 5 14 12 11 9 8 9 10 6 7 15 1 4 5 2 3 3 2 4 4 5 2 3 7
14 20 21 21 21 21 21 21 21 22 21 22 4 3 1 12 7 3 11 12 8 9 8 10 11 8 10 10 9 8 9 4 7 6 5 6 5 3 3 10 12 4 4 1 2 6 7
13 12 13 18 18 18 20 20 22 23 24 18 6 6 7 11 7 6 16 8 7 8 6 10 7 13 13 12 10 9 13 14 11 11 12 8 6 9 16 1 2 2 8 12 8 9 4
14 12 11 11 11 18 20 21 21 24 29 8 5 5 4 7 12 16 4 5 7 5 10 16 12 9 7 10 5 11 12 5 12 13 13 11 5 8 7 2 2 8 8 7 1 3 13
14 15 13 14 12 11 14 21 22 24 31 10 5 6 5 6 6 13 15 11 9 3 17 6 5 7 3 7 10 10 5 7 9 11 6 17 9 13 20 13 7 7 12 15 23 13 15
16 15 15 15 12 15 12 10 21 23 29 13 6 5 6 9 18 18 9 6 18 10 7 8 11 19 9 13 17 20 8 2 1 3 1 10 15 18 22 28 6 8 14 17 21 29 21
19 16 14 16 14 14 13 14 12 15 25 15 7 7 5 3 12 23 23 22 29 17 8 9 20 10 21 23 30 26 21 5 11 6 6 2 14 12 25 19 9 9 34 17 25 26 26
19 19 18 15 15 16 14 15 14 19 13 8 8 3 8 12 13 12 23 34 34 25 21 24 19 17 20 27 25 24 5 4 12 15 12 8 5 3 26 4 7 9 30 31 34 26 26
19 18 20 20 15 15 16 14 15 14 13 7 3 4 6 10 17 22 26 29 33 34 31 24 24 24 37 7 3 4 2 6 8 18 10 10 9 9 16 5 17 31 21 11 21 31 26
20 20 18 19 17 16 14 16 15 14 15 4 4 6 5 13 15 21 24 28 27 26 28 31 27 26 9 7 8 10 7 10 27 25 22 19 11 12 14 18 25 28 13 9 11 26 23
19 20 17 17 16 17 17 17 16 15 14 4 5 6 4 7 9 21 23 24 20 20 18 25 25 4 5 8 6 10 11 7 6 6 4 20 22 20 15 17 24 34 14 7 5 24 32
24 21 19 18 18 18 17 17 19 16 14 5 4 3 3 4 4 5 8 14 12 17 10 4 8 3 6 12 12 12 13 8 12 10 8 5 11 24 24 25 17 25 10 6 12 43 6
22 21 22 18 21 16 15 17 15 15 14 7 3 3 2 4 3 6 11 10 7 10 13 4 4 3 7 16 10 10 9 14 14 21 20 19 11 10 11 15 25 7 7 22 37 35 14
25 23 21 21 18 18 22 17 16 16 13 10 2 3 4 4 6 3 15 18 19 16 10 4 3 4 11 9 9 7 8 7 18 19 19 20 21 20 17 11 7 12 28 35 35 30 21
Wind_Direction
218 235 286 319 335 336 340 342 340 344 346 347 346 347 343 343 344 341 337 338 337 324 316 315 313 298 264 1 249 13 8 0 23 53 53 70 60 75 37 331 7 96 303 309 289 288 248
261 264 273 292 311 321 327 333 335 336 340 340 340 338 341 341 341 339 335 332 334 325 318 307 294 305 103 242 125 41 39 63 50 57 30 37 112 138 101 83 125 265 266 257 260 248 248
234 237 264 269 282 298 313 321 327 330 333 337 338 339 337 339 339 336 331 326 327 324 316 297 270 327 117 236 85 57 87 100 48 91 108 38 117 91 116 23 323 291 325 317 209 206 246
238 235 246 251 256 280 292 306 315 321 326 330 334 336 336 337 337 334 328 321 320 315 307 177 130 35 245 17 165 72 105 76 66 48 98 128 101 107 65 248 15 25 49 5 220 155 4
230 245 254 244 262 268 284 294 301 309 316 322 328 330 333 336 335 332 325 315 313 309 72 138 111 121 272 343 318 106 28 125 79 58 58 98 71 94 42 73 11 8 283 293 313 201 130
239 235 238 252 262 268 277 284 290 296 305 315 322 327 327 335 332 329 324 305 290 70 157 223 14 47 274 224 142 85 20 115 110 100 50 46 52 69 49 83 239 242 284 263 248 233 194
236 241 235 242 262 268 274 280 288 296 301 310 317 325 326 331 328 326 340 352 10 345 19 198 201 239 0 30 75 87 127 93 78 95 189 7 88 213 225 201 177 164 198 241 251 242 245
235 237 235 241 232 250 266 272 280 288 298 307 312 319 322 326 320 320 336 68 99 154 309 281 241 275 240 193 283 213 122 158 152 204 116 39 236 201 125 143 169 164 224 262 280 300 191
227 232 235 235 233 234 233 246 264 275 290 301 309 312 313 315 315 13 10 64 332 283 212 293 233 214 197 144 218 243 147 149 168 179 189 175 208 115 150 170 171 211 195 235 238 327 255
227 228 231 230 229 233 229 228 240 255 269 285 303 307 312 315 80 319 30 319 332 309 47 271 254 272 83 129 259 79 205 140 192 208 163 230 198 172 170 214 153 243 211 233 287 6 257
228 227 228 228 225 227 228 239 212 233 237 247 271 301 315 21 298 136 322 309 309 70 306 266 202 157 122 171 115 284 329 92 193 183 131 241 170 177 190 214 165 224 139 166 143 219 346
231 229 229 226 227 226 226 233 222 216 221 226 224 269 194 325 345 253 183 317 47 49 247 290 167 184 146 180 188 117 132 55 109 136 254 248 313 172 205 89 158 126 97 61 59 71 288
228 229 228 228 227 225 224 228 228 212 208 209 211 219 157 139 260 155 173 76 45 191 288 235 215 187 194 188 213 179 168 177 175 147 222 276 211 179 155 115 60 105 75 319 327 351 239
229 227 229 224 226 228 223 224 223 214 207 193 199 153 187 206 141 138 75 57 215 202 207 40 94 78 196 156 243 180 157 216 240 95 112 182 276 177 177 194 180 176 169 167 230 230 278
232 231 229 230 224 224 224 219 217 208 199 180 138 148 171 197 147 92 87 213 208 180 194 166 108 176 239 228 206 154 211 217 209 172 188 173 263 106 166 140 139 183 191 171 100 113 342
236 235 233 232 226 224 221 217 210 196 184 152 163 197 190 155 153 143 104 237 213 196 146 151 197 181 206 201 174 185 177 196 223 196 98 222 305 170 158 136 44 175 172 79 6 252 264
326 254 239 233 232 229 224 219 208 194 173 162 159 217 231 140 139 190 221 228 214 209 164 172 205 222 208 188 196 206 220 230 207 164 157 144 153 223 123 212 167 135 214 121 158 160 200
347 322 326 245 234 232 229 222 218 198 169 164 173 207 159 161 179 206 231 195 209 219 187 242 197 211 196 184 201 220 212 215 156 151 162 202 157 232 232 211 332 222 198 174 195 228 254
330 311 339 314 302 244 229 227 223 201 173 161 204 183 195 191 204 214 238 271 240 204 193 223 230 201 194 195 232 190 218 205 158 156 168 178 219 249 262 87 12 221 197 222 240 128 201
333 340 330 305 327 328 269 237 227 210 189 192 159 174 166 233 226 208 220 246 244 251 245 260 258 184 125 237 235 257 228 207 197 194 201 161 178 195 230 228 134 185 216 218 218 225 229
323 330 334 340 326 300 334 318 243 222 201 198 174 192 195 193 216 221 191 201 230 230 215 202 250 229 204 237 247 242 240 237 212 228 211 173 229 226 246 255 180 210 235 215 216 227 217
303 303 321 332 328 348 347 338 341 276 212 216 202 170 179 223 211 210 213 227 243 237 182 221 228 230 228 237 233 247 233 173 216 5 189 220 249 246 254 254 196 249 255 238 230 236 244
291 298 299 298 316 333 335 337 350 1 227 231 229 202 187 189 207 209 212 221 228 231 244 245 237 239 243 239 246 261 274 216 239 224 194 174 194 199 251 189 117 265 245 239 255 237 230
292 294 287 283 291 300 313 329 338 336 347 293 258 205 193 228 210 209 219 214 225 223 227 224 216 229 239 261 73 41 62 216 217 243 189 204 209 225 249 90 226 251 268 203 230 250 237
287 291 292 293 288 295 301 302 309 315 332 306 294 287 256 238 226 222 223 222 228 234 230 237 235 226 225 148 237 249 227 245 246 247 238 229 208 234 228 230 255 286 213 159 199 266 243
279 280 288 283 294 295 295 298 303 304 309 309 299 301 241 297 239 213 216 220 225 238 240 233 240 163 125 186 200 219 224 181 247 293 3 226 231 234 232 238 241 248 268 151 103 269 257
286 286 289 282 277 281 289 300 289 289 296 294 272 299 326 274 256 323 237 222 224 227 244 189 189 197 165 221 222 227 225 182 217 202 210 169 210 223 232 242 246 253 140 138 191 250 149
273 277 281 286 281 274 283 281 298 295 293 290 253 289 282 265 272 270 286 306 309 218 228 177 127 199 193 213 224 221 221 211 223 223 216 211 186 212 230 247 253 174 117 209 239 257 257
274 274 272 274 270 276 277 267 277 282 291 299 276 200 207 248 277 325 274 272 273 276 277 221 282 149 208 212 208 223 221 204 214 230 217 233 208 215 199 203 207 193 217 224 239 242 239